Location: Auckland
(36.8670°S, 174.7670°E)
Time: 13:41:29
(UTC+13:00)

ISS - Pass Details

Date: 28 January 2019
Orbit: 403 x 411 km, 51.6° (Epoch: 20 February)

Event Time Altitude Azimuth Distance (km) Brightness Sun altitude
Exits shadow 05:30:57 15° 335° (NNW) 1,228 -1.9 -11.4°
Maximum altitude 05:33:30 46° 45° (NE) 570 -3.0 -11.0°
Drops below altitude 10° 05:36:44 10° 119° (ESE) 1,492 0.7 -10.4°
Sets 05:38:52 0° 125° (SE) 2,358 2.4 -10.1°
